Snowfall_Accumulation
0.0 0.0 0.0 0.0 0.0 0.0 0.0 0.0 0.2 0.4 0.0 0.0 0.0 0.0 0.0 0.0 0.0 0.0 0.0 nan nan nan nan nan nan nan nan nan nan nan nan nan nan nan nan nan nan nan
0.0 0.0 0.0 0.0 0.0 0.0 0.0 0.0 0.0 0.1 0.3 0.0 0.0 0.0 0.0 0.0 0.0 0.0 0.0 nan nan nan nan nan nan nan nan nan nan nan nan nan nan nan nan nan nan nan
0.0 0.0 0.0 0.0 0.0 0.0 0.0 0.0 0.0 0.0 0.0 0.0 0.0 0.0 0.0 0.0 0.0 0.0 0.0 0.0 0.0 nan nan nan nan nan nan nan nan nan nan nan nan nan nan nan nan nan
0.0 0.0 0.0 0.0 0.0 0.0 0.0 0.0 0.0 0.0 0.0 0.0 0.0 0.0 0.0 0.0 0.0 0.0 0.0 0.0 0.0 nan nan nan nan nan nan nan nan nan nan nan nan nan nan nan nan nan
0.0 0.0 0.0 0.0 0.0 0.0 0.0 0.0 0.0 0.0 0.0 0.0 0.0 0.0 0.0 0.0 0.0 0.0 0.0 0.0 0.0 nan nan nan nan nan nan nan nan nan nan nan nan nan nan nan nan nan
0.0 0.0 0.0 0.0 0.0 0.0 0.0 0.0 0.0 0.0 0.0 0.0 0.0 0.0 0.0 0.0 0.0 0.0 0.0 0.0 0.0 0.0 nan nan nan nan nan nan nan nan nan nan nan nan nan nan nan nan
0.0 0.0 0.0 nan nan nan 0.0 0.0 0.0 0.0 0.0 0.0 0.0 0.0 0.0 0.0 0.0 0.0 0.0 0.0 0.0 0.0 0.0 0.0 0.0 0.0 0.0 nan nan nan nan nan nan nan nan nan nan nan
0.0 0.0 0.0 0.0 0.0 nan nan nan nan 0.0 0.0 0.1 0.0 0.0 0.0 0.0 0.0 0.1 0.1 0.0 0.2 0.0 0.0 0.0 0.0 0.0 0.0 0.0 nan nan nan nan nan nan nan nan nan nan
0.0 0.0 0.0 0.0 nan 0.0 nan nan nan nan nan 0.0 0.0 0.0 0.0 0.0 0.1 0.1 0.0 0.0 0.1 0.0 0.0 0.0 0.0 0.0 0.0 0.0 nan nan nan nan nan nan nan nan nan nan
0.0 0.0 0.0 0.0 0.0 0.0 0.0 0.0 0.0 0.0 0.0 0.0 0.0 0.0 0.0 0.0 0.0 0.0 0.0 0.0 0.1 0.0 0.0 0.7 0.1 0.2 0.0 0.0 nan nan nan nan nan nan nan nan nan nan
0.0 0.0 0.0 0.0 nan nan 0.0 0.0 0.0 0.0 nan nan nan nan nan nan nan 0.6 1.0 1.3 2.3 0.0 0.0 0.1 0.2 0.3 0.3 0.2 0.2 nan nan nan nan nan nan nan nan nan
0.0 0.0 nan 0.0 nan nan 0.1 0.0 0.1 0.0 0.0 0.0 0.0 0.0 nan nan nan 0.0 0.3 2.8 2.2 1.6 0.1 0.8 0.0 0.5 0.9 0.3 0.3 0.3 0.3 nan nan nan nan nan nan 0.0
0.4 0.3 0.2 nan nan nan nan 0.1 0.2 0.0 0.1 0.2 0.0 0.0 0.0 0.0 0.0 0.0 0.0 0.4 1.7 1.1 0.0 0.9 0.2 0.2 0.8 0.8 0.5 0.6 0.7 0.5 0.3 0.0 nan nan nan 0.0
0.3 0.4 0.5 nan nan nan 0.1 nan nan 0.3 2.4 2.5 1.7 1.0 0.7 0.5 0.0 0.0 0.0 0.0 0.1 0.2 0.0 0.0 1.9 0.7 1.4 1.4 1.6 0.5 0.5 0.5 0.4 0.2 0.7 nan nan nan
1.0 0.8 nan nan nan 0.1 nan nan 0.0 2.4 3.5 4.7 2.8 1.4 0.7 0.2 0.0 0.7 0.6 0.5 0.0 0.0 0.0 0.0 0.8 0.1 0.7 1.3 1.0 0.8 0.9 0.4 0.9 0.5 1.2 1.6 1.6 2.1
0.1 0.9 0.0 0.7 0.0 0.4 0.8 1.1 1.5 1.7 2.5 3.4 2.2 1.0 0.9 1.5 1.7 0.9 1.4 1.4 1.8 0.9 0.0 0.0 0.0 0.1 1.3 0.6 0.5 1.0 0.7 1.1 0.5 0.6 1.2 2.1 2.0 3.9
1.8 3.8 2.4 1.8 1.7 1.4 1.5 1.6 1.6 1.8 2.7 3.1 3.1 2.4 2.1 1.7 1.5 1.1 1.4 1.8 3.0 2.3 2.6 0.9 0.1 0.1 0.4 0.1 2.5 0.6 0.8 0.7 0.6 0.9 2.0 3.6 4.6 4.9
2.9 3.6 6.0 6.4 3.7 1.7 2.9 2.7 2.7 2.4 2.2 3.0 4.4 3.0 2.9 3.1 2.1 1.9 1.7 2.0 2.2 1.5 1.2 1.0 1.9 1.5 1.2 1.0 0.9 1.0 0.6 0.8 0.7 0.7 1.6 3.5 2.8 4.2
5.2 3.5 7.5 8.5 4.6 1.8 2.4 2.7 4.0 3.7 1.7 3.3 3.9 4.6 4.7 3.8 4.3 3.2 3.3 2.8 2.8 1.3 0.9 1.1 1.4 3.7 7.0 9.8 1.1 nan 2.3 1.2 2.0 2.3 1.3 2.1 3.8 3.8
2.1 3.6 5.3 5.0 2.4 1.9 1.9 2.4 2.8 4.2 4.6 4.0 5.8 7.9 9.4 6.7 5.9 4.2 3.4 4.7 2.6 1.3 1.0 0.5 0.9 1.0 2.9 10.0 11.4 4.9 nan 3.9 3.3 3.7 2.4 1.5 2.0 nan
2.2 1.8 4.3 3.8 3.1 2.5 7.3 8.6 11.2 10.0 10.2 13.5 7.7 8.1 17.5 4.9 5.3 3.9 4.1 3.0 2.5 1.3 1.3 1.0 0.8 0.0 1.0 2.6 16.7 6.0 5.2 nan 1.9 2.1 2.9 2.4 1.9 1.2
4.8 3.3 3.1 3.5 5.3 5.1 10.2 16.7 14.2 13.8 10.3 7.4 14.6 20.9 18.0 8.5 7.7 6.1 7.4 7.2 2.3 2.4 1.3 0.8 0.5 0.5 1.2 2.1 3.2 7.8 3.1 3.7 nan nan nan nan 3.1 4.1
8.6 4.4 6.2 8.0 9.8 10.4 5.2 10.1 4.5 8.8 8.0 8.2 7.3 7.6 33.9 9.6 5.6 5.7 6.0 4.2 2.5 2.6 1.7 1.8 0.8 0.6 1.1 1.4 2.3 3.5 1.8 4.4 2.2 2.2 4.0 nan nan nan
Water_Equivalent
0.00 0.00 0.00 0.00 0.00 0.00 0.00 0.00 0.06 0.10 0.00 0.00 0.00 0.00 0.00 0.00 0.00 0.00 0.00 nan nan nan nan nan nan nan nan nan nan nan nan nan nan nan nan nan nan nan
0.00 0.00 0.00 0.00 0.00 0.00 0.00 0.00 0.00 0.03 0.06 0.00 0.00 0.00 0.00 0.00 0.00 0.00 0.00 nan nan nan nan nan nan nan nan nan nan nan nan nan nan nan nan nan nan nan
0.00 0.00 0.00 0.00 0.00 0.00 0.00 0.00 0.00 0.00 0.00 0.00 0.00 0.00 0.00 0.00 0.00 0.00 0.00 0.00 0.00 nan nan nan nan nan nan nan nan nan nan nan nan nan nan nan nan nan
0.00 0.00 0.00 0.00 0.00 0.00 0.00 0.00 0.00 0.00 0.00 0.00 0.00 0.00 0.00 0.00 0.00 0.00 0.00 0.00 0.00 nan nan nan nan nan nan nan nan nan nan nan nan nan nan nan nan nan
0.00 0.00 0.00 0.00 0.00 0.00 0.00 0.00 0.00 0.00 0.00 0.00 0.00 0.00 0.00 0.00 0.00 0.00 0.00 0.00 0.00 nan nan nan nan nan nan nan nan nan nan nan nan nan nan nan nan nan
0.00 0.00 0.00 0.00 0.00 0.00 0.00 0.00 0.00 0.00 0.00 0.00 0.00 0.00 0.00 0.00 0.00 0.00 0.00 0.00 0.00 0.00 nan nan nan nan nan nan nan nan nan nan nan nan nan nan nan nan
0.00 0.00 0.00 nan nan nan 0.00 0.00 0.00 0.00 0.00 0.00 0.00 0.00 0.00 0.00 0.00 0.00 0.00 0.00 0.00 0.00 0.00 0.00 0.00 0.00 0.00 nan nan nan nan nan nan nan nan nan nan nan
0.00 0.00 0.00 0.00 0.00 nan nan nan nan 0.00 0.00 0.01 0.00 0.00 0.00 0.00 0.01 0.01 0.02 0.01 0.02 0.00 0.00 0.00 0.00 0.00 0.00 0.00 nan nan nan nan nan nan nan nan nan nan
0.00 0.00 0.00 0.00 nan 0.00 nan nan nan nan nan 0.00 0.00 0.00 0.00 0.00 0.03 0.02 0.00 0.01 0.02 0.00 0.00 0.00 0.00 0.00 0.00 0.00 nan nan nan nan nan nan nan nan nan nan
0.00 0.00 0.00 0.00 0.00 0.00 0.00 0.00 0.00 0.00 0.00 0.00 0.00 0.00 0.00 0.00 0.01 0.00 0.01 0.01 0.02 0.00 0.00 0.13 0.01 0.04 0.00 0.00 nan nan nan nan nan nan nan nan nan nan
0.00 0.00 0.00 0.00 nan nan 0.00 0.00 0.00 0.00 nan nan nan nan nan nan nan 0.12 0.19 0.23 0.43 0.00 0.00 0.02 0.04 0.08 0.08 0.06 0.05 nan nan nan nan nan nan nan nan nan
0.00 0.00 nan 0.00 nan nan 0.01 0.00 0.02 0.00 0.00 0.00 0.00 0.00 nan nan nan 0.01 0.05 0.45 0.36 0.25 0.02 0.13 0.00 0.09 0.17 0.06 0.08 0.07 0.08 nan nan nan nan nan nan 0.00
0.09 0.07 0.05 nan nan nan nan 0.02 0.03 0.00 0.01 0.04 0.00 0.00 0.00 0.00 0.00 0.00 0.00 0.08 0.29 0.19 0.00 0.15 0.04 0.04 0.14 0.16 0.11 0.14 0.14 0.11 0.08 0.00 nan nan nan 0.00
0.07 0.09 0.11 nan nan nan 0.02 nan nan 0.05 0.47 0.45 0.32 0.20 0.15 0.12 0.00 0.00 0.00 0.01 0.01 0.03 0.00 0.01 0.35 0.13 0.24 0.24 0.29 0.12 0.12 0.11 0.11 0.05 0.17 nan nan nan
0.22 0.17 nan nan nan 0.05 nan nan 0.00 0.48 0.64 0.77 0.47 0.25 0.15 0.04 0.01 0.14 0.11 0.07 0.00 0.00 0.00 0.00 0.17 0.02 0.14 0.23 0.19 0.17 0.18 0.10 0.21 0.13 0.27 0.37 0.36 0.50
0.03 0.20 0.00 0.17 0.00 0.07 0.15 0.23 0.31 0.34 0.45 0.56 0.36 0.19 0.19 0.31 0.36 0.20 0.30 0.28 0.33 0.19 0.01 0.01 0.01 0.02 0.27 0.13 0.11 0.20 0.14 0.21 0.12 0.13 0.30 0.48 0.47 0.87
0.33 0.69 0.42 0.32 0.29 0.25 0.29 0.31 0.31 0.34 0.49 0.53 0.52 0.40 0.36 0.31 0.30 0.25 0.29 0.36 0.56 0.45 0.51 0.18 0.02 0.02 0.10 0.03 0.49 0.14 0.16 0.16 0.14 0.22 0.40 0.70 0.98 1.01
0.50 0.60 0.99 1.07 0.60 0.30 0.47 0.47 0.46 0.44 0.40 0.54 0.72 0.51 0.47 0.53 0.38 0.39 0.34 0.39 0.43 0.29 0.24 0.21 0.38 0.31 0.27 0.22 0.19 0.21 0.13 0.17 0.16 0.17 0.34 0.68 0.52 0.78
0.82 0.58 1.17 1.35 0.75 0.29 0.39 0.42 0.62 0.60 0.26 0.56 0.65 0.73 0.74 0.60 0.72 0.58 0.62 0.53 0.52 0.26 0.18 0.24 0.29 0.71 1.01 1.38 0.23 nan 0.44 0.26 0.44 0.49 0.28 0.43 0.70 0.69
0.36 0.58 0.82 0.78 0.37 0.28 0.29 0.38 0.44 0.66 0.72 0.64 0.90 1.18 1.36 0.97 0.95 0.67 0.59 0.75 0.47 0.25 0.21 0.12 0.18 0.20 0.49 1.39 1.87 0.95 nan 0.80 0.67 0.69 0.48 0.34 0.41 nan
0.34 0.30 0.65 0.57 0.47 0.38 1.10 1.29 1.67 1.50 1.54 1.97 1.17 1.22 2.65 0.77 0.86 0.65 0.67 0.61 0.55 0.24 0.23 0.20 0.17 0.00 0.20 0.53 2.87 1.16 1.03 nan 0.38 0.41 0.55 0.50 0.38 0.24
0.66 0.44 0.45 0.49 0.75 0.73 1.53 2.41 2.14 2.10 1.48 1.09 2.06 3.11 2.82 1.25 1.10 0.92 1.14 1.12 0.40 0.44 0.24 0.17 0.10 0.11 0.23 0.38 0.57 1.52 0.60 0.72 nan nan nan nan 0.55 0.66
1.19 0.58 0.84 1.10 1.36 1.45 0.69 1.37 0.63 1.28 1.13 1.14 1.04 1.09 5.26 1.30 0.83 0.87 1.00 0.71 0.43 0.45 0.30 0.31 0.15 0.13 0.21 0.26 0.41 0.66 0.33 0.86 0.42 0.42 0.78 nan nan nan
SL_Ratio
nan nan nan nan nan nan nan nan 3.5 4.4 nan nan nan nan nan nan nan nan nan nan nan nan nan nan nan nan nan nan nan nan nan nan nan nan nan nan nan nan
nan nan nan nan nan nan nan nan nan 3.6 4.5 nan nan nan nan nan nan nan nan nan nan nan nan nan nan nan nan nan nan nan nan nan nan nan nan nan nan nan
nan nan nan nan nan nan nan nan nan nan 4.0 nan nan nan nan nan nan nan nan nan nan nan nan nan nan nan nan nan nan nan nan nan nan nan nan nan nan nan
nan nan nan nan nan nan nan nan nan nan nan nan nan nan nan nan nan nan nan nan nan nan nan nan nan nan nan nan nan nan nan nan nan nan nan nan nan nan
nan nan nan nan nan nan nan nan nan nan nan 4.3 nan nan nan nan nan nan nan nan nan nan nan nan nan nan nan nan nan nan nan nan nan nan nan nan nan nan
nan nan nan nan nan nan nan nan nan nan nan nan nan nan nan nan nan nan nan nan nan nan nan nan nan nan nan nan nan nan nan nan nan nan nan nan nan nan
nan nan nan nan nan nan nan nan nan nan nan nan nan nan nan nan nan nan nan 5.0 nan nan nan nan nan nan nan nan nan nan nan nan nan nan nan nan nan nan
nan nan nan nan nan nan nan nan nan nan nan 4.8 nan nan nan 10.0 5.8 5.8 5.7 6.5 7.0 nan nan nan nan nan nan nan nan nan nan nan nan nan nan nan nan nan
nan nan nan nan nan nan nan nan nan nan nan nan nan nan 5.0 nan 5.9 6.1 5.7 6.1 6.7 0.0 nan nan nan nan nan nan nan nan nan nan nan nan nan nan nan nan
nan nan nan nan nan nan nan nan nan nan nan nan 10.0 nan nan nan 5.6 5.0 5.4 5.9 5.0 7.1 nan 5.2 4.4 4.4 nan nan nan nan nan nan nan nan nan nan nan nan
nan nan nan nan nan nan nan 4.0 nan nan nan nan nan nan nan nan nan 4.8 5.0 5.5 5.4 7.5 8.0 6.3 4.7 4.4 4.3 4.3 4.3 nan nan nan nan nan nan nan nan nan
nan nan nan nan nan nan 4.8 5.3 5.4 5.0 nan 0.0 6.7 nan nan nan nan 5.6 5.9 6.3 6.2 6.4 7.1 6.4 10.0 5.4 5.2 4.4 4.3 4.2 4.2 nan nan nan nan nan nan nan
4.5 4.5 4.4 nan nan nan nan 5.2 5.6 3.3 5.2 4.7 5.0 6.7 5.0 nan nan 6.0 6.0 5.6 5.9 6.2 7.1 5.9 5.2 5.2 5.5 5.0 4.4 4.5 4.6 4.4 3.9 nan nan nan nan nan
4.8 4.6 4.5 nan nan nan 5.0 nan nan 5.0 5.1 5.6 5.3 5.1 4.9 4.5 5.0 nan 0.0 4.7 4.7 5.6 6.7 5.2 5.6 5.7 6.0 5.6 5.6 4.5 4.4 4.4 4.1 4.3 3.8 nan nan nan
4.7 4.7 nan nan nan 3.0 nan nan nan 5.1 5.5 6.1 5.9 5.7 4.9 4.7 5.6 4.7 5.1 6.4 6.7 nan nan nan 4.7 4.9 5.0 5.5 5.3 4.7 4.7 4.4 4.2 4.2 4.2 4.3 4.4 4.2
4.8 4.7 nan 4.4 2.0 4.9 4.9 4.8 4.9 5.0 5.5 6.0 6.0 5.2 4.7 4.7 4.9 4.3 4.8 4.9 5.4 4.9 4.5 4.2 5.0 5.0 4.8 4.7 5.0 5.1 4.5 5.1 4.2 4.2 4.0 4.4 4.3 4.5
5.4 5.5 5.6 5.7 5.8 5.4 5.3 5.1 5.1 5.2 5.5 5.8 6.0 6.0 5.8 5.4 5.1 4.5 4.7 4.9 5.3 5.2 5.1 4.6 4.8 4.4 4.5 4.8 5.0 4.6 4.7 4.6 4.4 4.2 4.9 5.2 4.7 4.8
5.7 5.9 6.0 5.9 6.2 5.8 6.1 5.8 5.8 5.4 5.6 5.7 6.1 6.0 6.1 5.9 5.5 5.0 4.9 5.1 5.2 5.0 4.9 4.8 5.0 4.7 4.6 4.5 4.7 4.7 4.7 4.7 4.5 4.4 4.8 5.2 5.3 5.3
6.3 6.0 6.4 6.3 6.2 6.2 6.2 6.3 6.4 6.1 6.5 5.9 6.0 6.3 6.3 6.3 6.0 5.5 5.3 5.3 5.3 5.0 4.9 4.6 4.7 5.2 6.9 7.1 4.7 nan 5.1 4.6 4.6 4.6 4.5 4.9 5.5 5.5
5.8 6.2 6.5 6.4 6.4 6.6 6.4 6.5 6.2 6.3 6.3 6.3 6.5 6.7 6.9 6.9 6.2 6.3 5.8 6.3 5.5 5.1 4.9 4.7 4.8 4.9 6.0 7.2 6.1 5.2 nan 4.8 5.0 5.3 5.0 4.6 4.9 nan
6.4 6.1 6.6 6.6 6.7 6.6 6.6 6.7 6.7 6.6 6.6 6.8 6.6 6.7 6.6 6.4 6.1 6.0 6.2 5.0 4.5 5.5 5.4 5.1 4.8 nan 5.1 4.9 5.8 5.1 5.0 nan 5.0 5.0 5.2 4.9 5.1 4.9
7.2 7.3 7.0 7.1 7.0 7.0 6.7 6.9 6.6 6.6 6.9 6.8 7.1 6.7 6.4 6.8 7.0 6.6 6.5 6.4 5.7 5.5 5.5 5.0 4.7 4.9 5.1 5.4 5.6 5.1 5.2 5.2 nan nan nan nan 5.7 6.2
7.2 7.5 7.3 7.3 7.2 7.2 7.5 7.4 7.1 6.9 7.1 7.2 7.0 7.0 6.4 7.4 6.7 6.6 6.0 5.9 5.7 5.8 5.5 5.7 5.0 4.8 5.1 5.6 5.5 5.3 5.4 5.1 5.3 5.3 5.1 nan nan nan